Вернуться в каталог

STARLINK-34947

АктивенСвязьSSO
NORAD 65184·PAYLOAD·🇺🇸 United States

Запущен Aug 14, 2025 с Vandenberg Space Force Base

Loading…

Ближайшие Пролёты (ближайшие 24 часа)

TLE

СвежийSource: CelesTrak SupGP

Эпоха: Sep 14, 2026, 21:04 UTC

1 65184C 25175L   26257.87826389 -.00132720  00000+0 -41201-2 0  2570
2 65184  97.2847 126.8816 0001523  90.0714  48.0584 15.33505904    12

Отслеживайте STARLINK-34947 в реальном времени с AllMySat

Download on the App Store